STARLINK-34240 (64265 NORAD) Tracking and Keplerian Element Data

This shows tracking and keplerian element data for the satellite.

Feedback or suggestion? Click here.




ElementValue
Catalog64265
NameSTARLINK-34240
Epoch Orbit3169
Epoch Day353.8920827
Epoch Year2025
RAAN127.7093
Inclination53.16
Eccentricity0.000461
Argument of Perigee168.8444
Mean Anonmoly191.266
Mean Motion15.301655
Decay Rate-6.303E-05
L11 64265U 25120K 25353.89208270 -.00006303 00000+0 -20094-3 0 9998
L22 64265 53.1600 127.7093 0004610 168.8444 191.2660 15.30165500 31695



Live tracking and technical data element details for STARLINK-34240 (NORAD 64265). STARLINK-34240 can be tracked NOW for your location showing map with azimuth and elevation plus other details from your city location.







IsCatalogInMostPopularTable: catalog: 64265, numindb: 3
Update: records affected: 1



GetName: 64265 STARLINK-34240

Hit Count: updated at: Sat, 07 Feb 2026 07:09:09 GMT